Weather Roundup
Issued by NWS Springfield, MO

Home | Current Version | Previous Version | Text Only | Print | Product List | Glossary On
Versions: 1 2 3 4 5 6 7 8 9 10 11 12 13 14 15 16 17 18 19 20 21 22 23 24 25 26 27 28 29 30 31 32 33 34 35 36 37 38 39 40 41 42 43 44 45 46 47 48 49 50
000
NZUS99 KSGF 011457
HRRSGF

HOURLY WEATHER
NATIONAL WEATHER SERVICE SPRINGFIELD MO
1000 AM CDT SUN MAY 01 2016

......SGF CWA......

CITY           SKY/WX    TMP DP  RH WIND       PRES   REMARKS
SPRINGFIELD    SUNNY     60  45  57 W9        30.00R
JOPLIN         SUNNY     57  47  69 W7        30.01F
ROLLA          SUNNY     63  51  65 W8        29.93R
BRANSON        SUNNY     59  45  58 W5        30.01R

......SURROUNDING SGF CWA......

CITY           SKY/WX    TMP DP  RH WIND       PRES   REMARKS
CHANUTE        MOSUNNY   54  43  66 NW13G21   30.02S
PARSONS        MOSUNNY   55  45  68 NW13      30.04R
COFFEYVILLE    SUNNY     54  43  66 NW8       30.04R
EMPORIA        PTSUNNY   50  42  74 W12       30.03R
HARRISON AR    SUNNY     62  45  53 W8        30.00R

......KANSAS AND MISSOURI......

CITY           SKY/WX    TMP DP  RH WIND       PRES   REMARKS
KANSAS CTY INT PTSUNNY   56  48  74 W10       29.98R
COLUMBIA       PTSUNNY   63  55  77 SW10      29.94R
SEDALIA        MOSUNNY   61  49  64 W13       29.98R
ST JOSEPH      CLOUDY    53  49  86 N8        29.98R
ST LOUIS       CLOUDY    63  58  83 CALM      29.93R
KIRKSVILLE     CLOUDY    51  48  89 NE3       29.97R
WICHITA        CLOUDY    50  41  71 NW18G24   30.06S
TOPEKA         CLOUDY    53  47  79 W12       30.00S
OLATHE         SUNNY     55  44  66 W9        29.98S

......TENNESSEE......

CITY           SKY/WX    TMP DP  RH WIND       PRES   REMARKS
MEMPHIS        NOT AVBL
NASHVILLE      CLOUDY    72  64  76 SW7       29.98R

......ARKANSAS.......

CITY           SKY/WX    TMP DP  RH WIND       PRES   REMARKS
FAYETTEVILLE   SUNNY     60  48  64 W7        30.03R
FT SMITH       SUNNY     64  47  53 W7        30.02R
LITTLE ROCK    MOSUNNY   74  59  59 NW6       29.95R

......OKLAHOMA.......

CITY           SKY/WX    TMP DP  RH WIND       PRES   REMARKS
TULSA          MOSUNNY   56  44  64 W15       30.06R
PONCA CITY     MOSUNNY   51  40  65 NW13G20   30.08R
MCALESTER      SUNNY     58  45  62 NW14      30.06R
OKLAHOMA CITY  MOSUNNY   53  40  61 N18       30.08F

......IOWA............

CITY           SKY/WX    TMP DP  RH WIND       PRES   REMARKS
DES MOINES     NOT AVBL
QUAD CITIES    CLOUDY    49  45  86 NE10      29.97S

......ILLINOIS........

CITY           SKY/WX    TMP DP  RH WIND       PRES   REMARKS
QUINCY         NOT AVBL
CHICAGO        FOG       44  44 100 NE12      30.00S VSB 1/4



USA.gov is the U.S. government's official web portal to all federal, state and local government web resources and services.